Location: Brahman Valley
(40.6513°N, 111.8855°W)
Time: 22:42:21
(UTC+00:00)

Vanguard 2 - Pass Details

Date: 13 May 2021
Orbit: 552 x 2937 km, 32.9° (Epoch: 14 June)

Event Time Altitude Azimuth Distance (km) Brightness Sun altitude
Rises 14:04:51 0° 250° (WSW) 4,671 10.9 19.6°
Reaches altitude 10° 14:07:31 10° 247° (WSW) 3,959 10.7 20.1°
Maximum altitude 14:18:34 61° 170° (S) 2,558 10.5 22.1°
Drops below altitude 10° 14:35:05 10° 96° (E) 5,701 13.7 25.3°
Sets 14:39:50 0° 94° (E) 6,786 13.7 26.2°
